Wind_Speed
4 3 9 15 7 1 12 18 14 18 18 13 7 10 14 21 11 20 26 28 27 28 27 30 30 28 27 27 24 22 20 19 18 17 15 13 11 10 11 11 11 10 10 12 12 12 12 11 11
1 3 14 16 13 12 15 17 21 19 16 10 10 26 19 16 10 33 30 29 29 29 27 27 26 26 25 24 22 20 19 19 18 16 15 13 10 10 10 9 9 9 10 10 11 12 11 11 10
3 6 6 6 14 6 14 18 17 14 12 11 10 15 15 30 25 31 30 30 28 27 25 24 24 24 23 21 20 19 19 19 17 16 14 12 11 10 8 8 9 9 10 10 10 11 10 10 9
2 11 12 11 17 14 17 12 14 12 9 15 17 24 22 21 24 27 29 27 26 25 24 23 22 22 21 20 19 19 19 18 17 15 14 12 10 8 8 8 9 10 10 11 10 10 11 11 11
3 7 9 7 14 13 13 13 10 15 16 19 25 25 16 8 24 24 25 23 22 22 21 21 22 21 20 19 19 19 19 18 16 15 13 11 10 8 8 9 10 11 11 11 10 10 11 11 11
11 12 20 3 6 8 10 7 14 16 15 22 19 21 23 17 20 22 21 20 20 19 19 20 20 20 20 19 19 19 18 16 15 13 10 8 8 8 8 9 10 11 10 11 10 10 10 11 10
15 12 13 4 7 8 7 7 8 12 14 15 18 18 21 19 11 17 20 16 16 18 18 19 20 20 20 20 19 17 16 14 12 10 8 7 7 8 9 9 9 10 10 10 8 8 8 9 9
21 14 24 4 13 9 9 8 7 8 19 15 17 18 22 18 8 10 14 18 12 18 19 19 20 20 19 18 17 14 12 11 9 8 7 5 4 5 6 8 8 9 9 9 9 7 6 7 5
14 9 13 8 12 13 11 10 12 14 13 14 10 12 20 22 19 12 10 9 16 16 17 17 18 18 17 16 14 12 10 8 6 5 5 3 2 4 7 4 6 6 7 6 6 6 5 6 6
14 2 4 6 3 7 12 10 10 10 14 13 10 21 23 24 23 21 20 18 15 17 17 17 16 15 15 14 12 10 9 7 5 4 3 1 6 4 5 1 3 5 5 7 5 7 7 8 9
13 4 11 2 12 12 11 12 7 14 12 13 25 24 23 24 23 21 18 13 17 17 18 16 16 15 15 14 12 9 7 6 5 4 3 2 2 3 5 5 4 7 8 10 11 8 8 10 13
21 7 4 5 7 9 8 13 9 10 12 17 18 21 20 25 23 21 17 11 16 14 11 6 14 14 11 8 9 9 9 6 7 6 4 4 5 5 5 4 7 9 11 10 8 10 8 12 11
17 18 2 5 4 9 10 12 13 9 17 16 18 22 20 23 23 22 20 17 14 19 19 19 11 11 11 10 9 8 6 10 6 6 6 7 7 4 8 7 7 8 10 9 6 9 7 12 16
14 13 13 7 10 9 14 14 12 14 13 16 19 23 22 23 23 22 22 20 15 14 18 17 11 11 10 9 6 8 9 11 7 7 12 7 6 7 7 6 8 10 11 8 10 10 12 13 16
18 19 13 14 11 11 14 16 11 18 17 18 19 22 22 23 23 23 23 23 18 13 13 12 11 11 11 10 8 9 8 9 11 9 9 7 5 9 8 10 10 11 12 9 9 10 12 13 14
22 19 19 21 14 15 18 16 11 19 17 19 19 21 23 23 23 22 21 21 15 14 14 13 13 12 12 11 11 10 12 11 9 10 12 16 8 10 10 10 13 13 11 12 14 14 14 16 18
25 27 22 14 16 18 17 13 12 15 17 20 20 21 23 23 24 23 20 19 17 17 16 15 15 14 11 13 12 12 13 12 12 14 10 14 11 10 10 10 14 12 14 15 14 16 16 20 17
28 27 25 24 22 22 18 15 21 22 18 21 20 22 23 24 25 25 22 20 20 18 17 16 16 16 12 12 14 14 14 11 10 15 15 13 17 12 11 10 12 12 14 14 14 14 19 17 17
26 24 26 16 16 21 20 18 15 29 24 21 22 23 23 25 24 26 23 24 23 22 19 17 17 17 16 13 13 15 12 13 14 16 16 11 14 12 12 11 14 12 13 13 13 14 16 15 14
31 31 31 22 22 25 21 23 11 27 24 22 23 23 25 25 26 27 28 26 26 23 20 18 17 16 17 16 15 14 17 18 16 13 14 17 15 10 10 10 12 10 10 9 11 11 12 13 7
34 34 30 21 21 23 23 23 25 24 22 22 23 24 24 27 28 30 30 30 29 27 23 19 17 17 16 18 16 18 16 13 13 16 12 9 8 9 8 5 5 2 4 6 7 8 9 9 8
38 33 31 26 26 22 25 21 30 26 28 26 24 25 26 26 28 29 32 32 32 30 26 23 20 19 17 19 18 17 17 15 14 13 8 3 2 2 3 3 1 1 4 6 8 10 10 9 9
40 31 32 29 31 22 28 17 28 32 35 30 25 26 26 28 27 30 32 33 26 30 29 26 22 21 19 18 18 16 15 13 11 9 5 5 6 4 2 2 1 1 2 6 9 10 12 11 10
34 33 32 32 34 23 32 25 40 41 32 27 30 27 28 26 29 28 31 32 31 26 26 24 22 22 21 19 19 18 15 13 12 10 10 9 7 7 8 5 3 2 4 7 9 11 12 13 12
37 38 28 24 24 18 35 38 26 27 29 25 34 28 31 30 30 31 31 34 31 26 23 23 20 21 22 21 21 20 16 15 12 9 10 10 10 11 9 7 4 6 10 10 12 14 15 16 14
41 41 31 20 17 22 38 35 29 32 28 27 32 31 37 32 29 31 33 30 26 25 22 22 17 18 23 24 23 21 19 16 12 12 11 13 12 11 11 8 9 10 10 12 14 17 22 25 20
39 45 43 41 36 28 34 37 34 25 33 21 26 22 24 35 26 29 34 29 27 25 22 16 16 16 24 26 24 22 19 13 12 14 15 14 15 16 9 14 14 15 14 16 15 23 28 37 29
43 39 41 45 26 25 31 35 25 35 40 28 24 20 20 24 27 28 30 27 26 27 22 20 20 16 24 26 26 23 20 14 15 17 17 18 19 22 16 15 19 19 21 21 20 21 26 30 30
39 43 43 40 43 17 17 27 33 33 34 37 32 30 32 25 22 27 25 26 26 29 26 24 24 22 25 28 28 26 25 22 19 19 20 21 24 21 28 23 21 25 26 26 27 30 34 37 32
41 43 47 38 33 41 38 30 28 28 29 31 28 28 30 28 28 28 29 28 30 27 28 24 28 27 25 28 30 27 26 27 25 24 24 23 24 26 28 30 29 31 33 32 32 33 37 38 39
Wind_Direction
39 25 148 72 23 291 133 99 104 84 81 72 64 122 62 129 111 122 126 125 123 125 122 125 124 122 120 119 123 126 129 131 132 136 132 121 116 94 84 78 74 68 59 49 47 42 43 45 49
2 241 181 149 33 31 83 88 82 95 95 99 32 92 91 120 151 125 129 129 128 127 127 127 126 123 124 127 131 129 134 136 136 135 127 127 114 98 91 85 76 65 57 52 51 52 44 50 45
302 46 286 207 74 90 99 104 96 99 85 97 62 67 106 116 131 131 128 127 131 129 128 128 128 129 132 131 129 133 135 133 135 132 131 124 111 105 95 81 68 60 56 50 50 56 52 52 52
223 258 263 275 107 132 102 97 101 93 76 94 110 89 106 127 134 134 129 130 129 127 129 132 135 135 132 131 131 131 131 135 137 133 124 117 114 101 88 72 62 54 50 50 47 52 57 56 51
234 358 299 13 76 99 102 121 109 92 106 102 115 114 111 141 137 131 129 135 135 132 134 135 137 137 137 136 135 134 136 136 132 127 124 122 111 95 77 63 56 52 50 48 41 38 49 54 49
283 299 289 65 86 87 90 67 102 107 99 120 122 119 113 130 137 140 137 135 134 139 139 137 139 142 142 140 139 138 136 135 131 125 118 104 84 71 63 63 59 56 52 46 40 36 44 52 52
258 277 288 101 117 122 106 113 108 118 134 124 139 120 130 147 156 137 131 144 143 139 138 142 147 145 145 144 142 140 139 136 130 126 114 91 71 63 63 59 56 51 49 42 38 32 35 40 45
253 281 308 210 150 135 140 111 123 119 140 133 142 144 152 137 146 96 137 131 148 140 148 151 149 150 151 149 147 147 146 145 140 128 111 95 79 80 71 51 46 44 43 41 39 37 30 22 31
264 287 285 345 122 133 143 120 116 129 137 163 186 158 153 148 149 125 175 175 160 161 156 155 157 159 159 157 161 160 163 162 153 141 134 117 66 71 85 63 50 37 28 26 27 30 28 358 348
279 283 94 4 125 145 155 143 152 143 150 157 126 149 163 149 154 160 189 202 193 165 163 162 162 164 167 167 170 174 179 179 177 176 168 171 347 20 41 23 31 10 346 355 355 339 1 19 351
216 272 293 240 129 160 155 150 154 154 159 163 161 164 163 158 162 166 209 219 190 166 179 167 169 175 177 172 171 181 189 196 205 204 239 251 229 245 264 310 332 1 327 351 350 40 340 345 341
177 256 191 30 167 163 171 152 149 178 176 168 179 177 167 166 166 170 191 220 172 175 162 173 187 173 192 175 180 195 199 225 211 210 241 259 264 282 287 318 324 334 346 342 355 347 331 333 335
235 246 279 227 196 195 180 159 159 139 155 163 177 175 171 169 170 174 179 207 192 179 153 206 183 177 196 199 192 150 229 254 267 272 228 250 265 305 292 289 320 320 324 327 350 325 328 333 321
236 247 242 252 235 201 185 168 158 173 168 169 176 177 175 175 177 180 181 203 204 180 171 203 195 189 203 216 214 224 218 227 251 250 285 249 283 292 301 317 325 321 316 323 333 326 326 324 324
250 247 247 239 224 212 204 165 180 181 173 180 179 180 181 180 185 191 185 205 204 192 193 201 203 203 210 220 224 223 237 240 233 249 279 305 254 277 297 304 305 304 311 311 316 315 313 304 325
242 241 245 233 211 202 195 183 176 179 181 187 185 185 188 187 191 197 197 206 205 203 211 214 217 217 217 226 230 233 239 244 254 246 246 245 277 259 280 296 295 296 306 319 318 318 314 317 334
234 238 235 201 214 191 202 194 169 188 191 193 193 191 193 194 195 205 208 212 217 215 219 216 227 237 225 233 241 243 244 241 242 235 262 270 284 279 276 285 292 315 314 311 307 304 314 317 319
229 228 231 215 197 204 198 182 254 203 204 199 199 200 198 200 199 212 209 217 223 225 227 226 233 239 247 234 241 245 245 253 228 261 254 285 269 277 287 285 293 300 304 305 302 304 311 312 309
230 230 230 218 196 209 201 194 182 189 200 201 203 204 207 206 209 207 218 221 224 230 232 235 240 244 256 256 248 250 253 257 252 267 271 257 274 280 288 296 299 299 292 295 310 316 313 309 318
232 243 237 215 223 211 209 200 177 183 194 201 206 208 209 211 212 217 223 218 231 236 241 242 245 252 253 254 255 249 249 252 252 243 273 268 273 274 286 285 288 301 301 319 322 321 313 312 329
228 237 239 241 209 205 213 211 208 201 199 200 207 214 214 215 214 225 227 230 230 241 246 242 240 249 249 255 247 248 249 247 238 260 246 269 269 274 277 274 287 316 322 3 346 343 328 316 334
225 228 240 245 242 191 224 225 207 211 202 202 199 208 216 220 220 219 234 235 233 239 243 243 242 245 246 247 251 245 246 241 234 247 242 160 187 195 142 139 131 18 354 356 3 6 0 347 334
224 224 236 245 241 200 195 245 258 209 201 203 204 209 210 219 220 219 229 239 243 234 243 245 241 238 241 238 247 242 228 219 215 207 188 153 146 145 146 150 157 203 359 354 1 360 4 4 353
223 229 238 241 248 221 230 210 247 201 212 236 212 213 211 209 220 225 221 238 248 249 248 248 240 231 236 232 231 228 218 213 199 194 175 178 178 184 174 184 188 307 332 334 343 347 347 354 356
221 222 232 237 237 242 222 204 216 218 215 219 214 233 214 210 208 222 221 224 243 250 250 253 247 226 226 226 217 217 210 211 204 193 184 191 193 193 207 227 269 291 300 312 322 331 335 337 338
217 221 223 228 229 235 238 247 223 223 216 226 249 199 208 208 203 217 230 227 236 243 249 253 261 234 221 216 209 209 207 205 202 197 200 201 215 225 223 252 267 273 289 311 326 332 340 330 319
218 223 224 234 238 247 238 230 238 214 239 199 208 236 211 210 210 221 226 233 234 245 244 240 246 236 217 212 207 205 202 193 190 205 214 220 226 243 245 243 260 278 293 301 319 330 326 347 307
219 219 221 231 239 241 240 251 229 216 207 222 201 205 217 213 211 213 218 226 239 242 247 232 231 227 218 214 209 209 208 205 208 214 221 230 234 250 261 259 272 281 284 291 287 306 321 333 342
214 225 229 227 237 246 245 245 238 224 210 202 214 223 228 223 220 218 226 235 246 247 247 236 223 222 213 215 212 214 215 218 225 229 233 234 243 251 275 276 277 283 286 283 288 292 301 312 338
221 219 226 236 227 236 251 248 242 243 237 205 210 222 218 218 223 225 219 234 241 248 244 241 227 223 217 217 217 222 226 227 232 241 244 248 255 264 267 283 285 287 288 288 287 291 300 302 310
Height
3154 3155 3156 3160 3158 3150 3150 3153 3150 3154 3154 3156 3156 3155 3156 3157 3161 3165 3164 3168 3170 3172 3174 3176 3179 3181 3183 3186 3190 3192 3195 3198 3200 3201 3203 3204 3206 3206 3206 3207 3208 3209 3209 3208 3207 3207 3207 3206 3206
3155 3155 3142 3142 3155 3154 3156 3157 3152 3156 3157 3156 3157 3155 3159 3159 3162 3162 3167 3170 3173 3175 3177 3180 3182 3184 3187 3190 3193 3195 3198 3200 3202 3204 3205 3207 3207 3208 3209 3209 3209 3210 3210 3209 3209 3208 3209 3208 3208
3154 3155 3148 3132 3153 3157 3158 3159 3157 3158 3158 3161 3160 3158 3161 3162 3167 3166 3170 3172 3176 3179 3181 3183 3185 3188 3191 3193 3195 3198 3200 3201 3204 3205 3207 3208 3209 3210 3210 3210 3210 3211 3211 3211 3210 3210 3210 3209 3209
3154 3152 3159 3155 3158 3159 3162 3163 3158 3160 3161 3163 3164 3163 3167 3169 3170 3172 3173 3177 3179 3181 3184 3186 3189 3191 3193 3195 3197 3200 3202 3204 3206 3208 3209 3210 3211 3212 3212 3211 3212 3211 3212 3212 3212 3212 3212 3211 3210
3157 3151 3153 3156 3160 3162 3163 3159 3159 3161 3163 3165 3167 3168 3169 3172 3173 3176 3178 3180 3182 3184 3187 3189 3191 3194 3195 3198 3200 3202 3204 3206 3208 3209 3210 3212 3212 3212 3212 3212 3213 3213 3214 3214 3214 3214 3214 3214 3212
3157 3156 3154 3154 3159 3160 3160 3159 3161 3163 3167 3168 3170 3171 3173 3176 3176 3178 3180 3182 3185 3187 3189 3191 3193 3195 3197 3200 3202 3204 3206 3208 3209 3210 3212 3213 3214 3214 3214 3214 3214 3215 3216 3216 3216 3216 3216 3215 3213
3164 3160 3155 3155 3157 3159 3162 3164 3161 3165 3170 3171 3172 3174 3178 3179 3179 3180 3182 3185 3186 3189 3191 3193 3195 3197 3200 3202 3204 3206 3208 3210 3211 3212 3214 3216 3216 3216 3216 3215 3216 3217 3217 3217 3217 3217 3216 3215 3214
3164 3162 3156 3155 3155 3161 3164 3165 3167 3167 3168 3173 3172 3176 3179 3181 3182 3185 3186 3187 3187 3190 3192 3195 3197 3199 3201 3203 3206 3208 3209 3210 3212 3214 3216 3216 3216 3214 3215 3217 3218 3218 3218 3218 3218 3217 3217 3215 3214
3153 3164 3158 3157 3156 3160 3164 3166 3169 3169 3171 3174 3174 3175 3180 3184 3187 3187 3185 3189 3190 3191 3194 3196 3198 3200 3203 3205 3207 3208 3210 3211 3212 3215 3217 3216 3214 3216 3216 3219 3219 3219 3219 3218 3217 3217 3216 3215 3215
3162 3160 3162 3156 3159 3163 3165 3166 3168 3171 3173 3176 3175 3178 3180 3184 3188 3190 3189 3189 3191 3192 3195 3197 3199 3201 3203 3205 3208 3209 3210 3211 3212 3215 3216 3216 3212 3216 3216 3220 3220 3220 3219 3220 3217 3217 3217 3214 3214
3159 3167 3164 3153 3159 3163 3165 3166 3169 3170 3174 3176 3176 3176 3178 3184 3188 3191 3189 3191 3191 3193 3195 3197 3198 3201 3203 3205 3207 3209 3210 3212 3212 3214 3216 3217 3217 3218 3218 3218 3219 3213 3220 3217 3215 3220 3218 3214 3212
3157 3165 3157 3159 3163 3163 3164 3165 3169 3171 3173 3175 3176 3176 3177 3182 3187 3191 3191 3190 3190 3194 3195 3197 3199 3201 3203 3205 3207 3209 3211 3211 3211 3213 3214 3216 3217 3217 3217 3216 3218 3218 3218 3216 3217 3217 3216 3214 3212
3158 3154 3157 3160 3161 3163 3165 3164 3167 3172 3172 3175 3175 3175 3177 3181 3185 3190 3193 3192 3191 3195 3195 3197 3199 3202 3203 3205 3207 3209 3212 3212 3212 3212 3214 3214 3216 3216 3216 3217 3217 3218 3218 3217 3217 3216 3215 3213 3213
3156 3157 3158 3158 3160 3162 3163 3164 3166 3171 3173 3174 3175 3175 3177 3180 3184 3188 3191 3191 3191 3193 3196 3197 3199 3202 3204 3205 3207 3208 3210 3211 3212 3214 3213 3215 3215 3216 3215 3215 3216 3217 3216 3216 3215 3215 3214 3213 3211
3154 3155 3156 3157 3158 3159 3162 3163 3165 3167 3173 3174 3174 3175 3177 3180 3183 3186 3189 3190 3191 3193 3195 3196 3199 3201 3203 3204 3206 3208 3209 3210 3211 3211 3211 3212 3214 3215 3215 3215 3215 3214 3213 3214 3214 3214 3213 3211 3210
3152 3152 3151 3151 3154 3157 3161 3161 3164 3165 3171 3173 3174 3175 3177 3179 3182 3184 3186 3188 3189 3192 3194 3196 3198 3200 3202 3203 3205 3206 3208 3208 3209 3210 3211 3212 3213 3213 3214 3214 3213 3212 3211 3211 3211 3211 3209 3207 3207
3148 3146 3147 3148 3152 3154 3157 3159 3165 3167 3169 3171 3173 3174 3176 3178 3181 3182 3184 3186 3187 3190 3192 3194 3196 3198 3200 3201 3203 3204 3205 3205 3207 3209 3208 3210 3210 3212 3212 3212 3211 3210 3210 3211 3210 3208 3208 3207 3206
3142 3141 3141 3141 3147 3150 3153 3155 3162 3166 3168 3170 3171 3173 3174 3175 3178 3180 3182 3183 3185 3187 3190 3192 3194 3196 3197 3200 3201 3202 3202 3204 3206 3206 3208 3208 3210 3209 3209 3210 3209 3210 3209 3209 3209 3207 3207 3205 3205
3138 3138 3137 3137 3144 3149 3148 3150 3151 3157 3164 3167 3168 3170 3172 3174 3175 3178 3179 3180 3182 3184 3187 3190 3192 3194 3194 3196 3198 3199 3201 3203 3204 3205 3204 3206 3207 3207 3207 3208 3208 3208 3207 3207 3206 3205 3204 3204 3202
3136 3133 3132 3133 3136 3143 3146 3145 3144 3152 3157 3161 3164 3166 3169 3171 3173 3174 3175 3177 3178 3181 3184 3187 3190 3192 3193 3194 3196 3198 3199 3200 3201 3203 3204 3204 3204 3205 3205 3206 3205 3206 3205 3205 3205 3204 3203 3202 3201
3131 3130 3130 3131 3134 3137 3141 3144 3146 3148 3152 3155 3159 3161 3164 3167 3168 3169 3171 3172 3174 3176 3180 3183 3186 3188 3190 3191 3193 3194 3196 3198 3199 3200 3201 3202 3202 3203 3203 3204 3204 3205 3205 3206 3205 3204 3202 3201 3200
3124 3127 3128 3131 3129 3130 3137 3134 3137 3145 3145 3149 3150 3157 3159 3161 3164 3167 3166 3167 3169 3171 3175 3178 3182 3184 3187 3188 3189 3192 3194 3196 3198 3199 3199 3200 3201 3202 3203 3204 3205 3206 3206 3206 3205 3203 3202 3201 3199
3119 3124 3125 3126 3126 3125 3132 3135 3133 3136 3140 3141 3146 3150 3154 3157 3159 3163 3163 3164 3165 3167 3168 3172 3177 3180 3182 3185 3187 3189 3191 3194 3196 3197 3198 3199 3201 3202 3203 3204 3205 3205 3205 3204 3204 3203 3201 3200 3198
3119 3121 3121 3121 3121 3119 3125 3129 3125 3126 3128 3139 3139 3145 3147 3152 3154 3157 3161 3161 3161 3164 3164 3166 3170 3175 3178 3181 3184 3187 3190 3192 3193 3195 3197 3199 3200 3202 3202 3203 3204 3204 3204 3204 3202 3201 3200 3199 3197
3112 3115 3114 3113 3109 3107 3115 3117 3116 3121 3124 3128 3135 3139 3143 3145 3148 3151 3153 3156 3156 3158 3160 3161 3165 3170 3174 3177 3181 3185 3188 3190 3192 3194 3196 3197 3198 3199 3200 3201 3202 3202 3201 3201 3200 3200 3199 3198 3196
3102 3105 3103 3105 3102 3105 3107 3102 3105 3114 3119 3123 3129 3125 3133 3138 3142 3146 3148 3150 3151 3154 3157 3159 3161 3166 3170 3174 3178 3182 3185 3187 3189 3191 3193 3194 3195 3196 3198 3199 3199 3199 3198 3198 3197 3196 3197 3198 3194
3093 3095 3101 3102 3101 3098 3095 3098 3102 3107 3114 3113 3121 3127 3131 3131 3134 3138 3142 3145 3148 3149 3152 3156 3158 3162 3166 3170 3175 3179 3182 3184 3186 3188 3190 3191 3192 3192 3195 3195 3195 3195 3196 3195 3196 3195 3193 3191 3191
3082 3091 3095 3094 3092 3088 3089 3091 3095 3098 3098 3117 3116 3122 3128 3129 3128 3132 3137 3140 3143 3145 3148 3152 3155 3158 3162 3167 3171 3175 3179 3181 3183 3185 3186 3187 3189 3189 3190 3192 3191 3192 3192 3193 3192 3190 3188 3188 3186
3079 3080 3082 3088 3088 3081 3085 3083 3091 3094 3097 3104 3108 3112 3123 3126 3126 3127 3131 3135 3138 3141 3143 3147 3150 3153 3157 3161 3166 3170 3174 3177 3179 3180 3182 3184 3185 3187 3182 3187 3189 3188 3189 3188 3187 3185 3184 3183 3182
3070 3070 3075 3076 3077 3078 3081 3077 3086 3090 3094 3097 3103 3108 3113 3116 3121 3124 3125 3129 3132 3135 3138 3140 3144 3148 3152 3156 3160 3165 3168 3172 3174 3175 3178 3180 3182 3182 3182 3181 3184 3184 3184 3184 3183 3182 3179 3177 3178